Dewpoint
44 47 49 50 52 51 51 54 55 55 51 48 48 48 48 48 48 48 47 48 47 46 46 46 46 46 46 46 45 45 46 47
43 45 47 49 45 46 47 48 46 46 45 45 45 45 45 45 46 45 48 46 46 45 46 45 45 44 44 44 45 45 43 46
44 46 47 46 44 44 44 44 44 45 45 45 46 45 46 46 46 46 47 45 44 41 43 43 43 44 44 44 43 42 43 44
43 44 45 44 44 43 43 44 44 45 45 45 45 45 45 44 44 44 43 43 41 41 41 42 43 43 43 43 43 43 44 44
43 44 44 45 45 45 43 43 43 46 45 44 44 44 43 44 44 43 41 41 40 39 40 41 42 42 42 43 45 43 42 40
41 43 44 45 45 45 44 44 44 44 45 45 44 43 44 44 43 41 39 39 40 39 39 41 42 44 44 43 43 42 41 41
40 42 44 44 45 45 44 44 43 45 44 45 45 43 42 41 40 39 39 39 39 39 41 42 43 42 42 42 41 39 39 39
39 39 42 44 42 43 43 43 42 44 45 45 43 42 41 39 38 37 37 38 37 38 39 42 41 41 41 40 40 40 40 39
37 38 38 41 43 43 43 42 41 43 43 42 42 41 41 39 37 37 37 38 38 37 38 40 41 41 40 39 39 39 39 38
37 40 41 40 41 42 42 41 40 41 41 40 39 39 39 37 36 37 38 37 36 36 37 38 40 40 39 38 38 37 37 37
39 40 41 42 41 42 41 39 38 37 36 38 37 36 36 36 38 36 36 36 36 35 36 38 39 39 38 37 37 37 37 37
40 40 40 40 40 39 39 35 35 35 35 35 33 33 34 37 37 36 35 35 35 35 36 35 36 36 36 36 36 36 36 36
39 39 39 38 38 36 35 34 34 34 33 32 31 32 33 35 35 35 34 34 33 33 32 29 29 28 30 31 31 28 28 26
38 37 37 36 34 32 32 32 35 33 31 30 29 31 33 33 32 34 33 32 31 28 27 27 28 29 27 27 28 27 26 26
37 37 37 34 33 31 30 31 34 33 31 30 30 31 33 32 32 32 32 31 28 25 26 27 28 27 26 26 25 25 25 24
37 36 36 33 30 30 29 30 32 34 32 32 32 34 34 32 34 36 34 30 28 25 25 27 27 25 23 25 25 24 24 23
36 35 32 31 28 26 27 28 31 34 33 33 34 36 35 36 36 35 35 29 24 24 25 26 26 23 28 27 25 23 23 22
35 34 33 29 26 26 26 26 27 27 26 31 33 35 36 37 37 37 33 25 24 25 25 26 26 26 29 27 27 24 23 21
36 35 33 25 25 25 25 24 24 25 27 32 34 35 35 36 37 35 30 26 24 25 26 26 26 25 30 30 30 26 24 23
Lifted_Index
0 0 -0 -1 -1 -2 -3 -3 -2 -2 -1 -0 1 1 2 2 3 4 4 4 4 5 5 6 7 8 8 9 9 9 9 9
-0 -0 -0 -0 -1 -2 -3 -3 -2 -1 -0 1 2 2 2 3 3 4 4 5 5 5 6 6 7 8 9 9 9 9 9 9
-0 0 1 1 0 -1 -1 -1 -1 1 2 2 2 3 3 3 3 4 5 5 6 6 6 7 8 9 9 10 9 9 9 8
1 1 2 2 2 1 1 1 2 2 3 3 3 3 3 4 4 4 5 6 6 7 7 8 10 10 10 10 9 8 8 7
2 2 2 2 3 2 3 3 3 3 3 3 4 4 4 4 5 5 6 6 7 8 9 9 10 10 10 9 8 8 7 7
2 2 2 2 2 2 2 3 3 3 4 4 4 4 5 5 5 6 6 7 8 9 10 10 10 9 9 8 8 8 8 8
2 2 2 2 2 2 2 2 3 3 4 4 5 5 5 6 6 7 8 9 10 11 11 10 9 9 8 8 8 8 8 8
2 2 2 2 3 3 3 2 3 3 4 5 5 6 6 7 7 8 9 10 11 11 10 10 9 9 9 9 8 8 8 8
2 2 2 2 3 3 3 3 3 4 5 5 6 6 7 8 9 9 10 10 10 10 9 9 9 8 8 8 8 8 8 8
2 2 2 2 3 3 4 4 5 5 6 6 7 8 8 9 9 9 9 9 9 9 9 8 8 7 7 7 7 7 6 6
1 2 2 3 3 4 4 5 6 6 7 7 8 8 9 9 9 8 8 7 8 9 8 8 7 6 6 6 5 5 5 5
1 2 2 3 4 5 5 6 7 8 8 8 8 8 9 9 8 7 7 7 8 8 7 7 6 6 5 5 5 5 5 4
2 2 3 4 5 6 7 7 8 9 9 8 8 8 9 9 8 7 7 7 7 7 6 6 6 6 5 5 5 5 5 5
3 3 4 5 6 7 8 9 9 9 9 8 8 8 8 8 8 7 7 7 6 6 5 5 5 5 5 5 5 5 6 6
3 4 5 6 8 9 9 9 9 9 8 8 8 7 7 7 7 6 5 5 5 5 4 5 5 5 5 5 5 6 6 6
5 5 7 8 9 9 9 10 10 9 8 8 7 7 6 6 5 4 3 3 4 4 4 4 4 5 5 6 6 6 7 7
6 7 8 9 9 10 10 10 10 9 9 8 7 6 6 5 4 2 2 3 3 4 4 4 5 5 6 6 6 7 7 7
8 8 9 10 10 11 11 11 10 10 9 9 8 6 5 4 3 2 2 3 3 4 4 4 5 5 6 6 7 7 7 8
8 8 9 10 11 11 11 11 10 10 9 9 8 6 5 4 3 2 2 2 3 4 4 4 5 5 6 6 7 7 7 8